Temperature
15 15 15 16 18 19 21 22 22 22 22 22 22 22 24 25 25 24 21 20 19 19 17 17 16 16 16 16 15 15 15 15 15 15 15 15 14 14 14 14 13 13 13 13 13 13 13 13 13
14 15 15 17 19 20 21 22 22 22 22 20 20 21 23 23 22 21 20 20 19 18 17 16 16 16 16 15 15 15 15 15 15 14 14 14 14 14 13 13 13 13 13 13 12 12 12 12 12
14 14 16 18 19 20 22 22 22 22 21 20 21 21 22 23 21 19 20 20 18 17 16 16 16 16 16 15 15 15 15 15 14 14 14 14 13 13 13 13 12 12 12 12 12 12 12 12 12
14 14 16 18 19 21 22 22 21 21 21 20 21 22 21 20 19 19 20 19 18 17 16 16 16 16 15 15 15 14 14 14 14 14 14 13 13 13 12 12 12 12 12 12 12 12 12 12 12
14 16 17 17 19 21 22 21 20 21 22 21 21 22 21 19 19 19 19 18 17 16 16 15 16 15 15 15 14 14 14 14 14 14 14 13 13 12 12 12 12 12 12 12 12 11 12 12 12
14 16 17 18 19 20 21 20 20 21 21 21 21 22 21 19 19 19 18 17 16 15 15 15 15 15 15 14 14 14 14 14 14 13 13 13 12 12 12 12 11 11 11 11 11 11 12 12 12
15 16 17 18 19 20 21 20 20 21 21 21 21 22 21 18 18 18 17 16 15 15 15 14 15 15 14 14 14 14 14 14 13 13 13 12 12 12 12 11 11 11 11 11 11 11 11 12 12
14 16 16 18 18 19 20 20 19 20 21 20 20 22 21 18 18 17 16 15 15 14 14 14 14 14 14 14 14 14 13 13 13 13 12 12 12 12 11 11 11 11 11 11 11 11 11 11 11
12 14 15 17 18 19 19 19 19 18 19 19 19 20 19 18 17 16 15 15 14 14 14 14 14 14 14 14 13 13 13 13 13 12 12 12 11 11 11 11 11 11 11 11 11 11 11 11 11
12 14 16 18 18 19 18 18 18 18 19 19 18 17 17 17 16 15 15 15 14 14 14 14 14 14 14 13 13 13 12 12 12 12 11 11 11 11 11 11 11 11 11 11 11 11 11 11 10
13 14 16 17 17 17 17 17 17 18 19 19 19 18 16 16 16 15 15 15 15 14 14 14 14 14 13 13 13 13 12 12 12 12 11 11 11 11 10 10 10 10 10 10 10 10 10 10 10
13 14 14 15 15 15 16 16 17 17 18 18 18 17 17 16 16 16 16 15 15 14 14 14 13 13 13 13 13 13 12 12 12 11 11 11 11 10 10 10 10 10 10 10 10 10 10 10 10
12 13 13 14 14 14 15 16 16 17 17 17 17 16 17 16 16 16 16 15 15 14 14 14 13 13 13 13 13 12 12 12 12 12 11 11 11 11 10 10 10 10 10 10 10 10 10 10 10
12 12 13 13 13 14 14 15 16 16 16 16 16 16 16 16 16 16 15 15 15 14 14 14 13 13 13 13 13 12 12 12 12 12 11 11 11 11 10 10 10 10 10 10 10 10 10 10 10
11 11 12 13 13 14 14 14 16 16 16 16 16 16 16 16 16 16 16 15 15 14 14 14 13 13 13 13 13 12 12 12 12 12 11 11 11 11 10 10 10 10 10 10 10 9 10 10 10
11 11 11 13 13 13 13 13 16 16 16 16 16 16 16 16 16 16 16 15 15 14 14 14 13 13 13 13 13 12 12 12 12 11 11 11 11 11 10 10 10 10 10 10 10 10 10 10 10
10 11 11 13 13 13 13 13 16 16 15 16 16 16 16 16 16 16 16 15 15 14 14 14 13 13 13 13 13 12 12 12 12 11 11 11 11 11 11 10 10 10 10 10 10 10 9 9 10
10 11 11 12 13 12 12 13 15 15 15 16 16 16 16 16 16 16 16 15 15 14 14 14 13 13 13 13 12 12 12 12 11 11 11 11 11 11 10 10 10 10 10 10 10 10 10 9 9
10 10 11 12 13 12 12 13 14 15 15 15 16 16 16 16 16 16 15 15 14 14 14 14 13 13 13 12 12 12 12 12 12 11 11 11 11 11 11 10 10 10 10 10 10 9 9 9 9
9 9 10 11 12 12 12 13 14 15 15 15 16 16 16 16 16 15 15 15 14 14 14 14 14 13 13 13 13 12 12 12 12 11 11 11 11 11 11 11 10 10 10 10 10 10 10 9 10
9 9 10 10 11 12 12 12 14 15 15 15 15 16 16 16 16 16 15 15 15 14 14 14 14 14 13 13 12 12 12 12 11 11 11 11 11 11 11 11 11 11 10 10 10 10 10 10 10
9 10 10 10 10 10 11 11 14 15 15 15 16 16 16 16 16 15 15 15 15 15 15 15 14 14 13 13 12 12 12 12 12 12 12 12 12 11 11 11 11 11 10 10 10 10 10 10 10
9 9 9 9 9 9 10 11 13 14 14 15 16 16 15 15 15 15 15 15 15 15 15 15 14 14 13 13 13 12 12 12 12 12 12 12 12 12 12 11 11 11 11 11 11 11 10 10 10
9 9 9 9 9 9 11 11 12 14 14 15 15 15 15 14 14 15 15 15 15 15 15 14 14 14 14 13 13 12 12 12 12 12 12 12 12 12 12 12 11 11 11 11 11 11 11 10 10
8 8 8 8 9 10 12 11 12 14 14 14 14 14 14 13 13 13 14 14 14 15 15 14 14 14 14 13 13 13 13 12 12 13 13 13 13 13 13 12 12 12 12 11 11 11 11 11 10
8 8 8 8 9 11 11 11 13 13 13 13 13 13 13 13 13 13 13 13 14 14 15 14 14 14 14 13 13 13 13 12 12 12 13 13 13 14 13 13 12 12 12 12 11 11 11 11 11
7 8 8 8 8 9 10 11 12 12 13 13 12 12 12 12 12 12 12 12 13 13 14 14 14 14 14 14 14 13 13 13 13 13 13 13 13 14 13 13 13 12 12 12 12 11 11 11 11
8 8 8 7 8 9 11 11 12 12 12 12 12 12 11 11 11 11 11 12 12 13 13 14 14 14 14 14 14 14 13 13 13 13 13 13 13 13 13 13 13 13 12 12 12 11 11 11 11
7 7 7 7 8 9 10 12 12 11 11 11 11 11 10 10 10 10 11 11 12 12 13 13 13 14 13 14 14 13 14 14 13 13 13 13 13 13 13 13 13 13 12 12 12 12 11 11 11
7 7 7 7 7 8 9 10 11 11 11 10 10 10 9 9 9 10 10 11 11 11 12 12 13 13 13 13 13 13 14 13 13 13 13 13 13 13 13 13 13 13 13 12 12 12 11 11 11
Wind_Speed
5 6 5 4 6 9 17 13 10 7 6 6 6 6 8 9 6 1 3 11 14 19 22 24 22 22 21 20 19 19 19 18 17 16 16 16 16 16 15 15 15 14 15 15 15 15 16 16 16
5 5 5 6 9 15 15 14 15 12 5 4 6 7 8 8 5 1 4 12 16 19 21 23 23 22 22 21 20 19 19 18 17 16 16 15 15 15 15 15 15 15 15 15 15 15 15 15 15
6 5 6 7 12 19 14 9 12 11 9 7 6 6 6 5 3 3 5 14 17 19 20 21 23 23 22 21 20 20 19 18 17 17 16 16 15 15 15 14 14 15 15 15 14 14 15 14 14
6 5 6 13 22 22 17 8 5 7 8 9 8 6 4 2 1 2 8 15 18 19 19 22 23 23 22 21 21 20 19 19 18 17 17 16 15 15 15 15 15 15 15 14 14 14 14 13 13
5 7 12 19 26 22 17 13 8 8 7 8 9 8 6 2 2 5 10 15 17 18 18 22 22 23 22 21 21 20 19 19 18 18 17 16 16 15 15 15 15 14 14 14 14 13 13 12 12
7 7 14 23 26 22 19 16 14 14 12 9 9 10 7 3 4 7 12 15 16 17 17 21 22 22 22 21 21 20 19 19 18 18 17 16 16 16 15 14 14 14 13 13 13 13 12 11 11
10 11 20 25 23 22 18 15 17 17 16 13 9 10 7 5 5 9 12 14 15 16 16 18 21 21 21 21 21 20 19 19 18 18 17 16 16 15 15 14 14 14 13 12 12 12 11 10 11
9 8 19 23 24 23 17 15 15 18 17 11 10 11 8 6 8 10 12 13 14 15 16 17 19 20 20 20 20 20 19 18 18 17 16 16 15 15 14 14 13 13 12 11 11 11 10 10 10
7 12 21 24 21 18 13 15 15 12 13 13 12 10 4 7 11 12 12 13 14 15 16 16 17 18 18 19 20 20 18 18 18 16 16 16 14 14 13 13 13 13 12 11 11 10 10 10 10
10 17 25 20 18 17 15 15 14 12 16 15 13 9 6 11 13 15 16 17 18 19 18 16 17 17 17 15 17 17 17 17 16 15 16 14 12 11 11 13 12 12 12 11 10 10 10 7 8
11 19 20 19 17 16 17 17 15 17 19 18 16 13 11 14 15 16 17 18 19 19 18 17 17 16 16 13 13 12 13 14 15 15 16 13 12 11 11 11 11 11 11 10 10 10 7 6 5
14 18 19 18 16 15 17 16 18 21 20 15 14 11 14 16 17 18 18 18 18 19 20 19 18 16 16 15 13 12 11 11 11 14 15 13 9 10 10 9 9 10 8 8 8 6 7 6 6
18 17 17 17 17 18 18 21 20 23 20 14 13 13 16 18 18 18 17 18 18 19 20 20 19 18 16 14 12 12 12 12 13 13 15 14 10 10 9 9 9 9 8 8 7 6 6 6 5
13 15 16 17 18 17 19 23 22 23 17 15 15 17 18 19 19 18 18 19 20 20 21 20 20 19 17 15 14 12 12 12 13 13 15 15 12 10 9 9 9 8 8 8 7 7 6 5 5
13 16 17 17 17 15 15 22 24 23 18 18 18 18 20 20 20 20 20 20 20 20 21 21 20 20 19 17 16 13 12 13 12 12 15 16 14 12 10 9 9 8 9 8 7 7 5 4 4
11 12 14 12 13 13 14 24 21 17 18 20 19 19 20 21 22 21 20 20 20 20 20 21 18 20 20 17 15 13 13 13 12 13 14 16 16 14 11 9 9 9 9 8 6 6 6 5 5
9 12 16 13 12 11 14 20 18 14 17 20 20 20 19 19 21 21 21 20 20 21 21 21 21 21 20 18 14 13 13 13 12 13 13 15 16 16 12 10 9 11 8 7 7 6 6 6 5
10 13 16 16 11 12 18 21 19 14 16 19 19 20 19 20 20 20 20 20 20 20 20 21 21 21 19 16 13 11 12 12 12 12 13 16 16 17 14 10 11 11 9 8 8 8 6 5 5
13 14 17 17 12 13 19 22 21 17 17 19 20 20 19 20 19 17 18 18 18 20 21 22 22 21 18 15 15 14 13 13 12 12 15 17 17 17 15 11 11 11 10 10 10 8 8 6 5
14 16 16 14 11 13 17 22 21 19 20 19 20 20 20 19 16 16 18 19 20 21 22 23 23 23 21 17 16 14 14 12 12 12 14 17 17 17 15 14 12 12 10 11 11 10 8 6 6
14 16 15 14 12 13 14 18 19 18 18 19 20 20 19 18 18 17 18 20 21 22 23 21 24 23 23 21 15 13 11 10 11 13 13 16 18 18 17 16 14 13 12 11 12 12 11 8 8
13 12 14 13 11 9 8 11 15 14 15 17 18 17 17 17 17 17 17 19 21 22 21 22 23 23 23 22 18 20 17 15 16 14 14 16 18 18 18 17 16 14 12 12 12 12 10 10 8
9 10 12 13 13 12 12 10 11 10 13 14 14 14 14 14 15 16 16 17 19 20 19 19 22 23 23 23 23 22 19 17 14 14 16 16 16 18 18 17 16 15 13 14 13 13 12 10 9
8 8 9 9 8 10 13 11 11 9 11 11 11 11 11 10 11 12 13 14 15 16 17 18 20 22 23 24 24 24 23 21 18 18 16 15 13 15 18 18 16 15 14 14 14 13 14 12 11
5 5 3 4 6 8 7 9 10 7 8 9 9 8 7 7 7 8 9 10 13 15 16 17 20 22 23 24 24 25 25 23 22 20 18 17 14 14 18 18 17 16 15 14 14 13 14 14 13
7 6 5 5 6 6 6 10 7 4 5 6 6 6 5 5 6 6 6 8 10 12 15 17 19 21 23 24 24 24 24 19 18 20 18 18 15 16 18 19 18 18 17 15 14 13 13 12 13
4 7 6 6 7 7 7 8 7 5 5 4 4 4 4 5 6 6 6 7 9 10 12 15 18 19 21 23 24 23 23 22 20 20 19 16 16 15 18 19 19 18 17 16 15 12 14 13 13
7 5 4 5 5 7 9 10 7 4 3 3 4 5 6 7 7 7 7 6 7 9 10 12 15 17 19 21 22 19 22 22 21 19 20 19 18 17 18 19 19 18 17 17 16 13 13 14 12
6 6 5 5 6 6 8 5 1 2 2 4 7 8 9 9 9 9 8 8 7 7 8 9 12 15 17 18 20 21 21 21 21 19 20 19 18 18 19 19 19 18 18 18 16 16 15 15 14
7 8 7 6 7 7 8 7 1 1 4 7 10 11 11 11 11 10 9 8 6 6 7 8 10 13 15 16 18 19 19 20 20 20 20 20 19 19 19 18 18 18 18 18 18 17 16 16 15
Wind_Direction
196 182 188 198 219 231 238 230 225 218 215 215 206 212 224 221 216 247 95 161 158 158 161 162 161 157 154 152 149 145 143 141 139 135 132 129 127 124 121 118 116 113 111 109 106 103 101 97 95
183 179 194 212 230 232 236 231 227 225 212 184 205 223 231 232 243 298 145 160 161 160 162 164 159 157 155 153 151 148 145 144 141 139 136 134 131 126 123 121 119 115 112 110 108 105 101 99 97
183 198 211 217 229 232 235 226 231 229 224 217 214 224 234 229 203 177 147 161 162 162 164 159 159 158 156 154 152 150 148 147 144 143 140 137 134 130 126 125 121 117 114 111 110 107 105 103 101
185 194 222 232 233 232 240 234 221 221 219 223 228 225 215 238 208 145 150 165 166 165 165 159 162 160 158 157 154 152 152 149 147 145 142 141 137 133 128 125 123 120 117 116 114 111 108 107 105
205 213 223 233 239 238 238 242 234 236 220 211 222 236 229 183 162 158 164 170 169 166 165 161 164 162 160 159 157 156 154 152 150 147 144 143 139 134 130 127 125 123 121 121 119 115 112 110 108
201 216 228 235 238 238 237 237 240 244 243 234 233 242 237 183 179 167 166 172 171 167 165 163 165 163 162 161 160 159 157 155 153 149 148 145 142 139 135 131 128 127 125 125 123 119 115 114 112
219 221 235 241 245 242 238 234 238 242 244 239 237 241 231 195 168 162 165 171 170 169 168 166 169 168 165 163 162 161 160 158 155 151 150 147 145 142 139 136 135 131 130 128 125 121 118 117 114
231 231 240 241 244 246 244 239 241 242 248 247 235 236 230 181 154 159 162 169 172 174 175 173 173 172 170 168 163 161 160 159 155 151 148 145 144 142 140 141 137 134 134 132 129 125 123 120 115
220 230 236 236 242 248 244 242 242 248 249 241 236 249 258 154 157 161 165 173 178 182 183 181 178 175 172 170 164 162 160 157 154 153 148 153 155 151 151 141 140 140 138 136 134 131 127 124 120
212 231 238 241 247 253 249 247 246 242 240 238 235 235 194 172 178 179 182 183 185 187 187 186 183 178 174 168 166 170 169 166 170 167 166 168 162 158 150 137 139 141 139 138 135 133 136 147 137
222 237 247 251 253 256 253 250 247 246 245 241 238 225 195 190 195 196 197 195 193 190 189 190 186 181 176 172 172 173 173 173 177 173 172 169 163 158 158 156 155 154 154 148 144 153 153 155 143
239 243 247 252 251 253 252 255 250 245 249 253 248 232 207 203 206 206 204 202 198 195 193 193 189 185 182 178 179 177 176 176 177 177 176 172 168 169 167 168 167 168 167 161 164 162 159 159 159
242 249 251 253 252 252 257 254 257 253 251 254 245 228 220 217 216 215 211 206 202 200 197 195 192 189 186 183 182 183 182 181 180 179 180 179 174 174 171 172 172 174 170 169 169 170 164 166 164
251 254 258 256 254 251 254 257 254 256 254 248 238 232 231 225 222 218 212 208 205 203 200 196 194 192 189 187 186 187 186 184 183 182 185 183 180 177 177 175 175 176 177 175 177 175 171 170 172
259 260 261 251 245 245 255 256 247 251 252 249 244 239 237 231 226 221 216 211 207 204 200 197 195 194 192 192 190 189 187 185 186 185 186 187 186 182 181 181 180 179 179 179 180 176 179 175 177
249 244 252 248 240 240 238 253 250 250 249 249 248 246 238 232 229 225 219 215 209 204 201 197 195 195 195 193 191 191 190 188 188 187 188 190 189 187 186 186 186 181 179 182 182 183 185 185 190
239 243 251 258 237 242 239 259 261 255 250 248 247 245 240 233 230 227 221 215 210 204 200 197 195 196 195 193 191 192 191 192 190 190 191 191 191 190 191 191 188 184 184 186 186 192 193 192 194
251 255 256 256 249 251 252 259 265 259 253 251 248 245 241 233 229 226 221 215 210 205 201 198 196 195 193 191 190 190 193 194 194 193 194 192 192 193 195 194 192 188 189 190 192 192 196 199 195
263 264 262 262 259 257 259 262 263 261 254 253 248 243 242 237 232 224 220 213 208 204 201 199 196 194 191 190 190 190 193 194 195 197 197 195 195 194 196 195 193 193 196 196 196 194 194 197 194
260 263 266 271 264 258 264 265 262 258 254 251 251 244 240 239 235 225 216 209 207 205 203 201 199 196 194 194 193 195 194 197 197 195 199 199 198 197 197 197 195 195 198 198 197 195 196 193 195
260 259 262 270 280 258 266 267 257 255 250 249 251 248 242 237 234 228 218 211 207 206 204 202 200 198 196 193 191 190 190 192 196 197 199 201 201 200 199 200 199 197 199 200 198 197 199 196 195
265 264 264 265 269 265 250 271 263 255 253 250 247 243 242 237 232 229 222 214 210 208 204 204 202 200 197 193 192 191 194 198 200 198 199 200 202 202 202 202 202 200 201 202 201 201 201 202 198
267 278 268 261 261 265 251 258 266 254 254 251 247 243 243 239 234 230 225 218 213 209 202 203 203 201 198 196 196 197 202 204 200 198 199 199 201 203 203 202 202 201 203 204 201 199 201 204 206
273 278 271 254 251 252 240 239 266 248 253 257 252 245 246 248 243 237 230 223 216 209 203 201 204 203 200 199 200 201 204 203 198 197 197 198 199 201 203 202 202 202 203 204 202 201 202 205 208
254 263 258 236 230 248 232 236 254 268 266 261 260 257 254 258 256 249 239 229 219 209 202 200 204 206 202 201 202 205 206 205 203 199 199 197 198 200 202 200 202 203 203 202 200 201 204 206 207
246 237 247 262 253 268 243 241 255 288 276 271 270 269 268 265 266 263 256 245 230 216 207 201 204 209 205 203 204 206 207 207 208 205 202 201 202 202 200 200 202 202 201 200 200 202 204 205 208
244 235 249 273 277 269 247 251 268 277 276 287 300 304 303 296 288 280 273 260 243 226 215 208 206 210 210 207 206 207 206 207 208 206 206 205 205 201 199 198 201 201 201 200 199 203 202 203 207
241 251 229 234 257 258 255 255 252 248 272 315 331 337 339 331 318 304 293 279 259 239 224 215 211 211 213 210 208 207 207 207 207 206 206 205 203 199 197 197 199 199 199 199 199 202 204 203 205
228 224 233 242 256 264 265 259 235 221 327 338 344 346 342 339 333 322 307 293 270 250 231 220 220 215 213 212 210 209 208 207 207 207 207 206 204 200 198 197 197 197 198 198 199 202 201 203 204
241 236 226 240 251 257 269 268 255 268 344 347 342 340 336 334 331 325 316 304 285 265 244 228 225 221 217 213 212 211 208 206 207 208 207 205 204 202 200 197 196 197 198 198 199 201 202 203 205
Height
1510 1511 1513 1516 1514 1506 1495 1487 1486 1488 1488 1489 1490 1490 1488 1486 1487 1489 1487 1486 1487 1490 1493 1497 1500 1504 1507 1510 1512 1514 1516 1518 1520 1522 1523 1524 1525 1526 1527 1528 1529 1529 1530 1530 1531 1531 1531 1531 1531
1509 1511 1514 1513 1506 1499 1488 1483 1485 1484 1486 1489 1490 1489 1488 1486 1486 1486 1484 1485 1487 1490 1493 1496 1499 1503 1506 1509 1512 1514 1516 1518 1520 1522 1523 1524 1526 1527 1528 1528 1529 1530 1530 1531 1531 1532 1532 1532 1532
1507 1509 1511 1505 1496 1487 1479 1479 1481 1483 1486 1488 1487 1487 1486 1485 1485 1485 1483 1485 1487 1490 1494 1496 1499 1502 1505 1508 1511 1514 1516 1518 1520 1522 1523 1524 1526 1527 1528 1529 1529 1530 1531 1531 1532 1532 1533 1533 1533
1506 1509 1507 1499 1485 1478 1477 1478 1482 1483 1485 1486 1486 1484 1484 1484 1484 1483 1482 1484 1487 1490 1493 1496 1499 1502 1505 1508 1511 1513 1516 1518 1520 1521 1523 1524 1526 1527 1528 1529 1530 1530 1531 1532 1532 1533 1533 1534 1534
1504 1503 1499 1489 1479 1475 1477 1480 1483 1481 1481 1483 1484 1481 1481 1481 1480 1481 1482 1484 1487 1490 1493 1495 1498 1502 1505 1508 1510 1513 1515 1518 1520 1521 1523 1524 1526 1527 1528 1529 1530 1531 1531 1532 1533 1534 1534 1534 1535
1501 1496 1490 1478 1472 1473 1476 1480 1481 1480 1479 1481 1482 1479 1479 1479 1479 1480 1481 1484 1487 1489 1492 1495 1498 1501 1504 1507 1510 1513 1515 1517 1519 1521 1523 1524 1525 1527 1528 1529 1530 1531 1532 1533 1533 1534 1535 1535 1535
1495 1490 1479 1472 1469 1469 1472 1476 1477 1476 1476 1477 1478 1477 1476 1478 1477 1479 1480 1483 1486 1489 1492 1495 1498 1501 1504 1507 1510 1512 1514 1517 1519 1521 1522 1524 1525 1527 1528 1529 1530 1531 1532 1533 1534 1535 1535 1536 1536
1491 1487 1476 1470 1468 1466 1470 1473 1474 1474 1473 1475 1477 1474 1474 1476 1475 1477 1479 1482 1485 1488 1491 1494 1497 1500 1503 1506 1509 1511 1514 1516 1518 1520 1522 1524 1525 1527 1528 1529 1530 1531 1532 1533 1534 1535 1536 1536 1537
1488 1485 1470 1465 1466 1465 1469 1471 1471 1472 1472 1472 1472 1472 1473 1473 1474 1476 1478 1480 1483 1486 1489 1493 1496 1499 1502 1505 1507 1510 1513 1515 1517 1519 1521 1523 1525 1527 1528 1529 1530 1531 1532 1533 1534 1535 1536 1537 1537
1482 1473 1462 1463 1465 1465 1468 1468 1469 1470 1468 1468 1469 1469 1470 1471 1472 1473 1475 1477 1479 1482 1486 1490 1493 1497 1500 1503 1505 1509 1511 1514 1516 1518 1520 1523 1525 1526 1527 1528 1530 1531 1532 1533 1534 1535 1536 1537 1538
1474 1467 1464 1465 1466 1467 1466 1466 1467 1466 1462 1463 1464 1466 1467 1468 1470 1471 1473 1475 1477 1480 1483 1487 1490 1494 1497 1500 1503 1506 1509 1512 1515 1517 1519 1521 1523 1524 1526 1528 1529 1531 1532 1533 1534 1535 1536 1538 1538
1470 1465 1465 1465 1466 1466 1464 1463 1462 1460 1458 1461 1462 1462 1463 1464 1466 1467 1469 1472 1475 1478 1480 1484 1487 1491 1494 1497 1500 1504 1506 1509 1512 1514 1517 1519 1521 1523 1525 1527 1528 1530 1532 1533 1534 1535 1536 1537 1538
1466 1463 1463 1463 1463 1463 1462 1459 1457 1455 1456 1458 1458 1459 1459 1460 1462 1464 1466 1469 1471 1474 1477 1480 1483 1487 1490 1494 1497 1501 1504 1506 1509 1511 1514 1516 1518 1521 1523 1525 1527 1529 1530 1532 1533 1534 1536 1537 1538
1463 1462 1461 1460 1459 1459 1457 1454 1453 1448 1453 1453 1453 1453 1454 1455 1457 1459 1461 1463 1466 1468 1472 1476 1479 1483 1487 1490 1494 1497 1501 1503 1506 1508 1511 1514 1516 1518 1520 1523 1525 1527 1528 1530 1532 1533 1534 1536 1537
1463 1461 1456 1454 1453 1453 1455 1448 1444 1444 1447 1447 1448 1448 1449 1450 1452 1453 1455 1457 1460 1463 1467 1471 1474 1478 1482 1486 1490 1494 1497 1500 1503 1505 1508 1511 1514 1516 1518 1521 1523 1525 1527 1529 1530 1532 1533 1534 1535
1460 1457 1452 1447 1448 1448 1453 1439 1435 1439 1441 1440 1441 1442 1442 1443 1445 1447 1450 1452 1455 1458 1462 1466 1470 1473 1478 1482 1486 1490 1493 1497 1500 1502 1505 1508 1511 1513 1516 1518 1521 1523 1524 1526 1528 1530 1531 1532 1534
1454 1450 1446 1443 1443 1444 1444 1435 1431 1434 1435 1434 1434 1435 1435 1436 1438 1441 1444 1446 1449 1453 1456 1460 1464 1468 1473 1478 1482 1486 1490 1493 1496 1499 1502 1505 1507 1510 1513 1516 1518 1520 1522 1524 1526 1528 1529 1531 1532
1448 1445 1442 1439 1438 1441 1438 1431 1428 1429 1430 1428 1428 1428 1428 1429 1431 1434 1437 1440 1443 1447 1451 1455 1459 1463 1468 1473 1477 1481 1485 1488 1492 1495 1498 1501 1504 1507 1510 1513 1515 1518 1519 1521 1523 1525 1527 1529 1530
1448 1445 1441 1436 1435 1438 1433 1427 1424 1423 1423 1422 1421 1421 1421 1422 1425 1428 1431 1434 1437 1441 1445 1449 1453 1457 1462 1466 1470 1474 1478 1483 1487 1490 1494 1497 1500 1503 1506 1509 1512 1514 1516 1518 1521 1523 1524 1526 1528
1447 1444 1439 1435 1434 1433 1428 1422 1417 1417 1415 1415 1415 1414 1414 1416 1418 1421 1423 1426 1430 1433 1437 1442 1446 1450 1455 1459 1464 1469 1474 1478 1482 1486 1489 1492 1496 1499 1502 1505 1508 1510 1513 1515 1517 1519 1521 1523 1525
1445 1441 1437 1434 1431 1428 1426 1416 1410 1407 1407 1408 1408 1407 1408 1409 1411 1414 1416 1418 1422 1426 1430 1434 1439 1443 1448 1453 1459 1464 1469 1473 1476 1479 1483 1487 1491 1494 1497 1500 1503 1506 1509 1511 1513 1515 1518 1519 1521
1440 1436 1435 1434 1433 1427 1425 1416 1401 1399 1399 1399 1400 1400 1401 1402 1405 1407 1409 1411 1414 1419 1423 1428 1432 1437 1442 1447 1451 1456 1459 1463 1467 1472 1477 1481 1485 1489 1492 1496 1499 1501 1504 1507 1509 1511 1514 1516 1517
1437 1435 1434 1432 1430 1428 1421 1418 1399 1395 1395 1393 1393 1395 1396 1397 1399 1401 1402 1405 1408 1412 1416 1421 1426 1430 1435 1440 1444 1449 1453 1458 1463 1467 1471 1475 1479 1483 1487 1490 1493 1496 1499 1502 1504 1507 1509 1511 1513
1437 1435 1432 1429 1428 1425 1411 1411 1397 1391 1390 1389 1390 1391 1392 1393 1395 1396 1397 1399 1402 1406 1410 1414 1419 1423 1428 1433 1437 1441 1446 1451 1456 1460 1464 1468 1472 1476 1480 1484 1487 1491 1494 1497 1499 1502 1504 1506 1508
1436 1435 1431 1425 1421 1411 1403 1404 1394 1386 1388 1388 1388 1389 1389 1390 1391 1391 1393 1394 1396 1399 1403 1407 1412 1416 1420 1425 1430 1434 1439 1444 1449 1453 1457 1461 1465 1469 1473 1477 1481 1484 1488 1491 1494 1497 1499 1501 1503
1433 1433 1431 1424 1412 1402 1402 1398 1387 1387 1388 1388 1388 1387 1387 1387 1388 1388 1389 1390 1391 1394 1397 1400 1404 1408 1413 1418 1422 1427 1432 1437 1442 1446 1450 1454 1458 1462 1466 1470 1474 1478 1482 1485 1488 1491 1493 1496 1498
1432 1430 1428 1427 1418 1412 1398 1391 1387 1387 1386 1386 1386 1386 1385 1386 1386 1386 1386 1386 1387 1388 1391 1394 1397 1401 1405 1410 1415 1419 1424 1429 1433 1438 1443 1447 1451 1455 1459 1463 1468 1471 1475 1478 1482 1484 1487 1490 1492
1431 1428 1428 1426 1418 1405 1390 1386 1382 1384 1384 1384 1384 1385 1385 1385 1384 1383 1382 1382 1383 1383 1385 1388 1391 1394 1398 1402 1407 1412 1416 1421 1426 1431 1435 1439 1444 1448 1452 1456 1460 1464 1468 1472 1475 1478 1481 1484 1486
1430 1429 1427 1422 1417 1406 1392 1384 1382 1384 1386 1386 1386 1386 1386 1385 1383 1381 1379 1379 1378 1379 1380 1381 1384 1388 1391 1395 1399 1404 1408 1413 1418 1423 1427 1432 1437 1441 1445 1449 1453 1457 1461 1465 1468 1471 1474 1477 1480
1427 1425 1424 1423 1417 1411 1399 1390 1385 1386 1387 1388 1388 1387 1386 1383 1381 1379 1377 1376 1375 1375 1375 1376 1379 1381 1384 1387 1392 1396 1400 1405 1410 1414 1419 1424 1429 1433 1438 1442 1446 1450 1453 1457 1461 1464 1467 1470 1473